Regional Weather Roundup
Issued by NWS

Home | Current Version | Previous Version | Text Only | Print | Product List | Glossary Off
Versions: 1 2 3 4 5 6 7 8 9 10 11 12 13 14 15 16 17 18 19 20 21 22 23 24 25 26 27 28 29 30 31 32 33 34 35 36 37 38 39 40 41 42 43 44 45 46 47 48 49 50

000
ASUS43 KLOT 041308
RWRIL

ILLINOIS REGIONAL WEATHER ROUNDUP
NATIONAL WEATHER SERVICE CHICAGO/ROMEOVILLE IL
800 AM CDT WED MAY 04 2016

NOTE: "FAIR" INDICATES FEW OR NO CLOUDS BELOW 12,000 FEET WITH NO
SIGNIFICANT WEATHER AND/OR OBSTRUCTIONS TO VISIBILITY.

* THESE STATIONS ARE NOT UNDER NWS QUALITY CONTROL. THEY ALSO MAY NOT
  REPORT WEATHER SUCH AS PRECIPITATION OR FOG.

ILZ001-002-007-009-015-016-024-041400-
NORTHWEST ILLINOIS

CITY           SKY/WX    TMP DP  RH WIND       PRES   REMARKS
MOLINE         PTSUNNY   51  45  79 N12G20    29.81R
STERLING*      SUNNY     48  45  87 N12       29.79R
SAVANNA*       MOSUNNY   49  44  85 N10       29.81R
$$

ILZ003-004-008-010-011-017-018-041400-
NORTH CENTRAL ILLINOIS

CITY           SKY/WX    TMP DP  RH WIND       PRES   REMARKS
ROCKFORD       CLOUDY    48  42  80 N16       29.79R
FREEPORT*      MOSUNNY   46  41  80 N16G22    29.81R
ROCHELLE*      MOSUNNY   48  44  83 N15       29.77R
DE KALB*       PTSUNNY   47  44  87 N15G23    29.75S
$$

ILZ005-006-012>014-019>023-041400-
NORTHEAST ILLINOIS

CITY           SKY/WX    TMP DP  RH WIND       PRES   REMARKS
CHICAGO-OHARE  CLOUDY    48  42  80 N14       29.72R
CHICAGO-MIDWAY PTSUNNY   47  39  74 N20       29.72R
AURORA         MOSUNNY   50  44  80 N18       29.73R
LANSING*       PTSUNNY   46  39  78 N20G31    29.71S
JOLIET*        SUNNY     51  43  75 N12       29.73R
WAUKEGAN       CLOUDY    47  41  80 N8        29.72R
DUPAGE AIRPORT PTSUNNY   49  41  74 N20G29    29.72R
KANKAKEE*      CLOUDY    48  42  79 N9G18     29.72R
WHEELING       CLOUDY    47  41  80 N10       29.73R
MORRIS*        MOSUNNY   50  46  84 N6        29.72R
ROMEOVILLE*    MOSUNNY   49  42  76 N9        29.73R
NORTHERLY ISL    N/A     46  40  79 NW21        N/A
NORTHERLY ISL    N/A     46  40  79 NW21        N/A
$$

LMZ740>746-041400-
SOUTHERN LAKE MICHIGAN

STATION/POSITION SKY/WX   TEMP    WIND        PRES    VSBY  WAVE
                          AIR SEA DIR/SP/G                  HT/PER
                          (F)     (DEG/KT/KT) (MB)    (MI)  (FT/S)
SOUTHERN BUOY              41 40  350/ 23/ 27 1004.9R         6/ 5
WILMETTE HARBOR            44 44   10/ 14/ 17   N/A           4/ 4
HARRISON CRIB              45     360/ 30/ 34   N/A
BURNHAM HARBOR             45     340/ 17/ 24   N/A
CALUMET HARBOR             45     330/ 18/ 27 1005.2R
BURNS HARBOR               44     360/ 24     1005.4R
MICHIGAN CITY              42     340/ 30/ 32   N/A
ST. JOSEPH                 43 48                N/A           4/ 3
$$

ILZ025>027-034>036-040-047-049-050-058-095>099-041400-
WEST-CENTRAL ILLINOIS

CITY           SKY/WX    TMP DP  RH WIND       PRES   REMARKS
QUINCY         SUNNY     56  46  69 N16       29.78R
GALESBURG*     SUNNY     50  47  88 N18       29.79R
MACOMB*        SUNNY     52  48  87 N14       29.80R
JACKSONVILLE*  SUNNY     56  48  76 N14G20    29.75R
PITTSFIELD*    SUNNY     57  47  69 N16       29.77R
$$

ILZ028>032-037-038-041>044-048-051>054-059>061-041400-
CENTRAL ILLINOIS

CITY           SKY/WX    TMP DP  RH WIND       PRES   REMARKS
PONTIAC        PTSUNNY   51  49  93 N15       29.74R
BLOOMINGTON    MOSUNNY   51  50  97 N17       29.74R
DECATUR        MOSUNNY   55  49  80 NW13      29.72R
PEORIA         MOSUNNY   48  46  93 MISG      29.76R
LACON*         PTSUNNY   48  46  91 N12G18    29.75R
LINCOLN*       MOSUNNY   53  50  92 N12       29.74R
SPRINGFIELD    SUNNY     56  50  80 N15G21    29.73R
TAYLORVILLE    SUNNY     54  49  84 NW7       29.72R
$$

ILZ033-039-045-046-055>057-062-063-041400-
EAST-CENTRAL ILLINOIS

CITY           SKY/WX    TMP DP  RH WIND       PRES   REMARKS
CHAMPAIGN      MOSUNNY   52  52 100 NW15      29.71R
RANTOUL*       SUNNY     54  49  83 NW9       29.71R
MATTOON        SUNNY     53  48  83 SW7       29.69R
PARIS*         CLOUDY    52  50  93 W7        29.71R
$$

ILZ079-100>102-041400-
SOUTHWEST ILLINOIS

CITY           SKY/WX    TMP DP  RH WIND       PRES   REMARKS
ALTON          SUNNY     57  48  72 W12       29.72S
BELLEVILLE     PTSUNNY   58  50  73 W15       29.71R
CAHOKIA*       CLOUDY    59  48  67 W7        29.73R
SPARTA*        CLOUDY    55  47  75 W3        29.74R
$$

ILZ064>066-069>071-074>076-080>082-084>086-088>090-092>094-041400-
SOUTH-CENTRAL ILLINOIS

CITY           SKY/WX    TMP DP  RH WIND       PRES   REMARKS
CARBONDALE     LGT RAIN  53  47  79 SW14      29.73F
CAIRO*         MOSUNNY   57  48  72 SW8       29.78F
EFFINGHAM*     CLOUDY    53  52  96 SW5       29.72R
MARION         LGT RAIN  54  50  87 SW12      29.74F
MT. VERNON     CLOUDY    52  45  76 CALM      29.74R
CENTRALIA*     CLOUDY    54  50  86 W7        29.71S
SALEM*         CLOUDY    54  49  83 SW9       29.71F
METROPOLIS*    PTSUNNY   58  50  75 SW8       29.78F
$$

ILZ067-068-072-073-078-083-087-091-041400-
SOUTHEAST ILLINOIS

CITY           SKY/WX    TMP DP  RH WIND       PRES   REMARKS
LAWRENCEVILLE  CLOUDY    51  49  92 S8        29.72F
FLORA*         PTSUNNY   53  50  88 SW8       29.71F
FAIRFIELD*     CLOUDY    51  49  93 CALM      29.72R
HARRISBURG*    RAIN      52  49  88 SW10      29.74F
ROBINSON*      CLOUDY    50  49  97 S6        29.72S
CARMI*         RAIN      51  48  89 S12       29.71F
$$

ABBREVIATIONS USED IN REMARKS
   TC - TEMPERATURE IN CELSIUS
  WCI - WIND CHILL INDEX
   HX - HEAT INDEX
  VSB - VISIBILITY
$$





USA.gov is the U.S. government's official web portal to all federal, state and local government web resources and services.